Bolingbrook's Clow International Airport

Jump to: basic info | weather | frequencies | runways | comments

Related pages: nearby airports | nearby navaids | notams | map

Basic information (top)

Codes: K1C5 1C5
Location: lon 41.695999, lat -88.129204, elev 670 ft / 204 m msl
Status: small_airport
Scheduled airline service: no
Links: Wikipedia Mobile

Weather (top)

Current conditions for Lewis University Airport 6nm (10km) SSE (rec'd 2014/09/19 23:35Z):

KLOT 192335Z AUTO 18007KT 10SM CLR 18/10 A3001

Airport forecast for Dupage Airport 14nm (26km) NNW (rec'd 2014/09/19 18:21Z):

TAF KDPA 191720Z 1918/2018 18012G19KT P6SM FEW250 
     FM200000 18012KT P6SM SCT250 
     FM200300 19012G17KT P6SM SCT250 
     FM201400 22013G22KT P6SM FEW040 SCT150 BKN200

Frequencies (top)

Verify before use: may be inaccurate or out of date.

A/D: 119.35 MHz (CHICAGO APP/DEP)
CTAF: 122.9 MHz (CTAF)

Runways (top)

18/36: 3,362 x 50 ft (1,025 x 15 m) — other (ASPH-G) — lighted — threshold 18 displaced 190 ft (58 m) — threshold 36 displaced 130 ft (40 m)

Latest comments (top)

1C5 - Clow International - First Starts: I started primary training here a long ... [read]

More... (top)

See also NOTAMs and nearby airports and navaids, or visit the Bolingbrook's Clow International Airport page at the main OurAirports website..